Weather History for Sturgeon Bay, WI

Change the Weather History Date:

Sunday, December 9, 2012

  Actual Average Record
Temperature  
Mean Temperature 30 °F -  
Max Temperature 33 °F 32 °F 58 °F (1946)
Min Temperature 26 °F 20 °F -12 °F (1927)
Degree Days  
Heating Degree Days 36    
Moisture  
Dew Point 26 °F    
Average Humidity 81    
Maximum Humidity 93    
Minimum Humidity 60    
Precipitation  
Precipitation 0.12 in - - ()
Sea Level Pressure  
Sea Level Pressure 29.98 in    
Wind  
Wind Speed 8 mph (East)    
Max Wind Speed 15 mph    
Max Gust Speed 22 mph    
Visibility 6 miles    
Events      
Averages and records for this station are not official NWS values.
T = Trace of Precipitation, MM = Missing Value Source: NWS Daily Summary

Daily Weather History Graph

Daily Weather History Graph

Search for Another Location

Airport:

Trip Planner

Search our weather history database for the weather conditions in past years. The results will help you decide how hot, cold, wet, or windy it might be!

Date:

Astronomy

Dec. 09, 2012 Rise Set
Actual Time 7:15 AM CST 4:08 PM CST
Civil Twilight 6:42 AM CST 4:42 PM CST
Nautical Twilight 6:05 AM CST 5:18 PM CST
Astronomical Twilight 5:29 AM CST 5:54 PM CST
Moon 2:40 AM CST (12/9) 1:22 PM CST (12/9)
Length of Visible Light 9h 59m
Length of Day
8h 52m
Waning Crescent, 18% of the Moon is Illuminated
Dec 9
Waning Crescent
Dec 13
New
Dec 19
First Quarter
Dec 28
Full
Jan 4
Last Quarter

Hourly Weather History & Observations

Time (CST) Temp. Windchill Dew Point Humidity Pressure Visibility Wind Dir Wind Speed Gust Speed Precip Events Conditions
12:15 AM 26.6 °F 21.2 °F 19.4 °F 74% 30.18 in 10.0 mi NE 4.6 mph - N/A   Clear
12:35 AM 26.6 °F 20.0 °F 19.4 °F 74% 30.17 in 10.0 mi NE 5.8 mph - N/A   Clear
1:15 AM 28.4 °F 22.2 °F 19.4 °F 69% 30.17 in 10.0 mi ENE 5.8 mph - N/A   Clear
1:35 AM 28.4 °F 22.2 °F 19.4 °F 69% 30.16 in 10.0 mi ENE 5.8 mph - N/A   Clear
1:55 AM 28.4 °F 23.3 °F 19.4 °F 69% 30.16 in 10.0 mi East 4.6 mph - N/A   Clear
2:15 AM 28.4 °F 22.2 °F 21.2 °F 74% 30.16 in 10.0 mi East 5.8 mph - N/A   Mostly Cloudy
2:35 AM 28.4 °F 23.3 °F 21.2 °F 74% 30.16 in 10.0 mi East 4.6 mph - N/A   Overcast
2:55 AM 30.2 °F 26.7 °F 21.2 °F 69% 30.17 in 10.0 mi ENE 3.5 mph - N/A   Overcast
3:15 AM 30.2 °F 25.4 °F 23.0 °F 75% 30.16 in 10.0 mi ENE 4.6 mph - N/A   Overcast
3:35 AM 30.2 °F 26.7 °F 23.0 °F 75% 30.16 in 10.0 mi East 3.5 mph - N/A   Mostly Cloudy
3:55 AM 32.0 °F 25.6 °F 24.8 °F 75% 30.15 in 10.0 mi East 6.9 mph - N/A   Mostly Cloudy
4:15 AM 33.8 °F 29.6 °F 24.8 °F 70% 30.15 in 10.0 mi ESE 4.6 mph - N/A   Overcast
4:35 AM 33.8 °F 27.0 °F 23.0 °F 65% 30.14 in 10.0 mi ESE 8.1 mph - N/A   Overcast
4:55 AM 33.8 °F 25.8 °F 23.0 °F 65% 30.12 in 10.0 mi ESE 10.4 mph - N/A   Overcast
5:15 AM 33.8 °F 27.0 °F 23.0 °F 65% 30.12 in 10.0 mi SE 8.1 mph - N/A   Overcast
5:35 AM 33.8 °F 26.4 °F 23.0 °F 65% 30.14 in 10.0 mi ESE 9.2 mph - N/A   Overcast
5:55 AM 33.8 °F 27.0 °F 23.0 °F 65% 30.14 in 10.0 mi ESE 8.1 mph - N/A   Overcast
6:15 AM 33.8 °F 27.0 °F 21.2 °F 60% 30.13 in 10.0 mi East 8.1 mph - N/A   Overcast
6:35 AM 33.8 °F 26.4 °F 21.2 °F 60% 30.13 in 10.0 mi East 9.2 mph - N/A   Overcast
6:55 AM 33.8 °F 27.7 °F 21.2 °F 60% 30.13 in 10.0 mi East 6.9 mph - N/A   Overcast
7:15 AM 33.8 °F 27.0 °F 21.2 °F 60% 30.14 in 10.0 mi East 8.1 mph - N/A   Overcast
7:35 AM 33.8 °F 27.0 °F 21.2 °F 60% 30.14 in 10.0 mi East 8.1 mph 16.1 mph N/A   Overcast
7:55 AM 33.8 °F 27.0 °F 21.2 °F 60% 30.14 in 10.0 mi East 8.1 mph - N/A   Overcast
8:15 AM 33.8 °F 25.8 °F 21.2 °F 60% 30.13 in 10.0 mi East 10.4 mph - N/A   Overcast
8:35 AM 33.8 °F 26.4 °F 21.2 °F 60% 30.12 in 10.0 mi East 9.2 mph - N/A   Overcast
8:55 AM 33.8 °F 27.0 °F 21.2 °F 60% 30.12 in 10.0 mi East 8.1 mph - N/A   Overcast
9:15 AM 33.8 °F 26.4 °F 24.8 °F 70% 30.11 in 10.0 mi ESE 9.2 mph - N/A   Overcast
9:35 AM 33.8 °F 25.3 °F 24.8 °F 70% 30.09 in 10.0 mi East 11.5 mph 18.4 mph N/A   Overcast
9:55 AM 33.8 °F 26.4 °F 24.8 °F 70% 30.08 in 10.0 mi East 9.2 mph 17.3 mph N/A   Overcast
10:15 AM 33.8 °F 25.3 °F 24.8 °F 70% 30.08 in 10.0 mi East 11.5 mph 17.3 mph N/A   Overcast
10:35 AM 33.8 °F 24.3 °F 26.6 °F 75% 30.07 in 5.0 mi East 13.8 mph 18.4 mph N/A   Overcast
10:55 AM 32.0 °F 22.5 °F 28.4 °F 87% 30.06 in 1.0 mi ESE 12.7 mph 19.6 mph N/A   Overcast
11:15 AM 32.0 °F 23.6 °F 28.4 °F 87% 30.04 in 1.2 mi East 10.4 mph 17.3 mph N/A   Overcast
11:35 AM 32.0 °F 23.6 °F 30.2 °F 93% 30.03 in 1.0 mi East 10.4 mph 17.3 mph N/A   Overcast
11:55 AM 32.0 °F 23.6 °F 30.2 °F 93% 30.01 in 1.2 mi East 10.4 mph - 0.01 in   Overcast
12:15 PM 32.0 °F 24.8 °F 30.2 °F 93% 29.98 in 1.2 mi East 8.1 mph 18.4 mph N/A   Overcast
12:35 PM 33.8 °F 26.4 °F 30.2 °F 87% 29.98 in 1.2 mi East 9.2 mph - N/A   Overcast
12:55 PM 33.8 °F 25.8 °F 30.2 °F 87% 29.96 in 1.5 mi East 10.4 mph 16.1 mph 0.01 in   Overcast
1:15 PM 33.8 °F 25.3 °F 30.2 °F 87% 29.95 in 1.2 mi East 11.5 mph 18.4 mph N/A   Overcast
1:35 PM 33.8 °F 24.8 °F 30.2 °F 87% 29.95 in 0.8 mi East 12.7 mph 16.1 mph 0.01 in   Overcast
1:55 PM 32.0 °F 22.5 °F 30.2 °F 93% 29.94 in 0.8 mi East 12.7 mph 18.4 mph 0.01 in   Overcast
2:15 PM 32.0 °F 22.5 °F 30.2 °F 93% 29.93 in 1.0 mi East 12.7 mph 20.7 mph 0.01 in   Overcast
2:35 PM 32.0 °F 22.5 °F 30.2 °F 93% 29.92 in 0.8 mi East 12.7 mph - 0.01 in   Overcast
2:55 PM 32.0 °F 23.0 °F 30.2 °F 93% 29.91 in 1.0 mi East 11.5 mph 19.6 mph 0.02 in   Overcast
3:15 PM 32.0 °F 23.6 °F 30.2 °F 93% 29.89 in 1.5 mi East 10.4 mph 20.7 mph 0.01 in   Overcast
3:35 PM 32.0 °F 22.1 °F 30.2 °F 93% 29.88 in 2.0 mi East 13.8 mph 21.9 mph 0.01 in   Overcast
3:55 PM 32.0 °F 23.0 °F 30.2 °F 93% 29.87 in 2.5 mi East 11.5 mph 16.1 mph 0.02 in   Overcast
4:15 PM 32.0 °F 23.0 °F 30.2 °F 93% 29.86 in 2.5 mi East 11.5 mph 18.4 mph N/A   Overcast
4:35 PM 32.0 °F 23.0 °F 30.2 °F 93% 29.86 in 3.0 mi East 11.5 mph 16.1 mph N/A   Overcast
4:55 PM 32.0 °F 23.6 °F 30.2 °F 93% 29.85 in 3.0 mi East 10.4 mph 18.4 mph N/A   Overcast
5:15 PM 33.8 °F 25.8 °F 30.2 °F 87% 29.84 in 4.0 mi East 10.4 mph - N/A   Overcast
5:35 PM 33.8 °F 24.8 °F 28.4 °F 81% 29.84 in 9.0 mi East 12.7 mph 19.6 mph N/A   Overcast
5:55 PM 32.0 °F 23.0 °F 28.4 °F 87% 29.84 in 3.0 mi East 11.5 mph 21.9 mph 0.01 in   Overcast
6:15 PM 32.0 °F 22.1 °F 28.4 °F 87% 29.82 in 1.8 mi East 13.8 mph 21.9 mph N/A   Overcast
6:35 PM 32.0 °F 22.5 °F 28.4 °F 87% 29.81 in 1.8 mi East 12.7 mph 21.9 mph N/A   Overcast
6:55 PM 30.2 °F 19.3 °F 28.4 °F 93% 29.82 in 1.5 mi East 15.0 mph 20.7 mph 0.01 in   Overcast
7:15 PM 30.2 °F 21.9 °F 28.4 °F 93% 29.82 in 1.8 mi East 9.2 mph - N/A   Overcast
7:35 PM 30.2 °F 21.3 °F 28.4 °F 93% 29.82 in 1.8 mi East 10.4 mph 21.9 mph 0.01 in   Overcast
8:15 PM 30.2 °F 21.9 °F 28.4 °F 93% 29.80 in 1.2 mi ENE 9.2 mph - N/A   Overcast
8:35 PM 30.2 °F 23.4 °F 28.4 °F 93% 29.80 in 3.0 mi ENE 6.9 mph - 0.01 in   Overcast
8:55 PM 30.2 °F 21.9 °F 28.4 °F 93% 29.78 in 3.0 mi NE 9.2 mph - 0.01 in   Overcast
9:15 PM 30.2 °F 22.6 °F 28.4 °F 93% 29.77 in 3.0 mi ENE 8.1 mph - N/A   Overcast
9:35 PM 30.2 °F 21.9 °F 28.4 °F 93% 29.77 in 2.5 mi ENE 9.2 mph - N/A   Overcast
9:55 PM 30.2 °F 21.3 °F 28.4 °F 93% 29.75 in 2.0 mi NE 10.4 mph - 0.01 in   Overcast
10:15 PM 30.2 °F 22.6 °F 28.4 °F 93% 29.75 in 3.0 mi NE 8.1 mph - N/A   Overcast
10:35 PM 30.2 °F 21.9 °F 28.4 °F 93% 29.73 in 4.0 mi NE 9.2 mph - N/A   Overcast
10:55 PM 30.2 °F 21.9 °F 28.4 °F 93% 29.72 in 5.0 mi NE 9.2 mph - N/A   Overcast
11:15 PM 30.2 °F 21.9 °F 28.4 °F 93% 29.72 in 2.0 mi NE 9.2 mph - N/A   Overcast
11:35 PM 30.2 °F 22.6 °F 28.4 °F 93% 29.72 in 5.0 mi NNE 8.1 mph - N/A   Mostly Cloudy
11:55 PM 30.2 °F 23.4 °F 28.4 °F 93% 29.71 in 2.5 mi NE 6.9 mph - N/A   Overcast